RYR63FM LEMD-GCLP

Flight info

Callsign RYR63FM
Flight time 2h 57m
Altitude 35000
Route VTB DCT INPAN DCT CRISA DCT HIJ DCT SVL DCT CLANA DCT KORNO UN857 TERTO
Aircraft B738/M-SDE2E3FGHIRWXY/LB1

Departure

Time 2026-05-05 08:05
Airport Adolfo Suárez Madrid–Barajas Airport (LEMD)

Arrival

Time 2026-05-05 11:02
Airport Gran Canaria Airport (GCLP)
Time Latitude Longitude Altitude Speed Heading
2026-05-05 07:26 40.46161 -3.56673 1976 ft 0 kts 91°
2026-05-05 07:27 40.46161 -3.56664 1974 ft 0 kts 90°
2026-05-05 07:52 40.46161 -3.56655 1971 ft 3 kts 86°
2026-05-05 07:52 40.46179 -3.56620 1973 ft 7 kts 34°
2026-05-05 07:53 40.46244 -3.56602 1973 ft 12 kts
2026-05-05 07:53 40.46337 -3.56594 1972 ft 15 kts
2026-05-05 07:53 40.46451 -3.56586 1971 ft 18 kts
2026-05-05 07:53 40.46584 -3.56575 1972 ft 20 kts
2026-05-05 07:54 40.46734 -3.56564 1975 ft 23 kts
2026-05-05 07:54 40.46898 -3.56551 1974 ft 25 kts
2026-05-05 07:54 40.47039 -3.56556 1979 ft 20 kts 346°
2026-05-05 07:54 40.47166 -3.56645 1980 ft 21 kts 320°
2026-05-05 07:55 40.47267 -3.56748 1984 ft 14 kts 322°
2026-05-05 07:55 40.47351 -3.56833 1987 ft 16 kts 322°
2026-05-05 07:55 40.47442 -3.56926 1990 ft 17 kts 322°
2026-05-05 07:55 40.47541 -3.57026 1992 ft 19 kts 322°
2026-05-05 07:56 40.47644 -3.57131 1996 ft 19 kts 322°
2026-05-05 07:56 40.47750 -3.57239 2000 ft 18 kts 322°
2026-05-05 07:56 40.47831 -3.57320 2001 ft 15 kts 322°
2026-05-05 07:56 40.47916 -3.57407 2003 ft 17 kts 322°
2026-05-05 07:57 40.48023 -3.57516 2000 ft 22 kts 322°
2026-05-05 07:57 40.48142 -3.57637 1997 ft 21 kts 322°
2026-05-05 07:57 40.48273 -3.57770 1993 ft 26 kts 321°
2026-05-05 07:57 40.48408 -3.57896 1990 ft 25 kts 327°
2026-05-05 07:58 40.48538 -3.58003 2000 ft 18 kts 328°
2026-05-05 07:58 40.48654 -3.58047 2002 ft 19 kts 358°
2026-05-05 07:58 40.48764 -3.58051 2002 ft 16 kts
2026-05-05 07:58 40.48856 -3.57990 2000 ft 18 kts 82°
2026-05-05 07:59 40.48857 -3.57802 1993 ft 24 kts 90°
2026-05-05 07:59 40.48859 -3.57576 1989 ft 23 kts 90°
2026-05-05 07:59 40.48859 -3.57368 1985 ft 22 kts 89°
2026-05-05 07:59 40.48860 -3.57166 1981 ft 22 kts 90°
2026-05-05 08:00 40.48861 -3.56969 1978 ft 21 kts 90°
2026-05-05 08:00 40.48861 -3.56779 1974 ft 21 kts 90°
2026-05-05 08:00 40.48862 -3.56593 1970 ft 20 kts 89°
2026-05-05 08:00 40.48862 -3.56449 1966 ft 16 kts 90°
2026-05-05 08:01 40.48863 -3.56312 1963 ft 13 kts 88°
2026-05-05 08:01 40.48923 -3.56244 1961 ft 13 kts
2026-05-05 08:01 40.49010 -3.56244 1961 ft 12 kts 359°
2026-05-05 08:01 40.49099 -3.56244 1961 ft 14 kts
2026-05-05 08:02 40.49202 -3.56246 1961 ft 16 kts 359°
2026-05-05 08:02 40.49322 -3.56247 1961 ft 18 kts 360°
2026-05-05 08:02 40.49458 -3.56247 1960 ft 20 kts 360°
2026-05-05 08:02 40.49605 -3.56249 1960 ft 18 kts
2026-05-05 08:03 40.49728 -3.56249 1960 ft 19 kts 359°
2026-05-05 08:03 40.49852 -3.56250 1960 ft 18 kts 359°
2026-05-05 08:03 40.49938 -3.56193 1959 ft 16 kts 82°
2026-05-05 08:03 40.49943 -3.56049 1957 ft 16 kts 76°
2026-05-05 08:04 40.50006 -3.55942 1958 ft 15 kts 29°
2026-05-05 08:04 40.50105 -3.55921 1959 ft 14 kts 360°
2026-05-05 08:04 40.50319 -3.55922 1960 ft 63 kts 359°
2026-05-05 08:04 40.50995 -3.55928 1959 ft 130 kts 360°
2026-05-05 08:05 40.52080 -3.55934 2008 ft 180 kts 360°
2026-05-05 08:05 40.53375 -3.55931 2730 ft 186 kts
2026-05-05 08:05 40.54655 -3.55633 3555 ft 192 kts 15°
2026-05-05 08:05 40.55998 -3.55113 3904 ft 214 kts 15°
2026-05-05 08:06 40.57457 -3.54558 4404 ft 222 kts 15°
2026-05-05 08:06 40.58944 -3.53941 5059 ft 226 kts 23°
2026-05-05 08:06 40.60346 -3.52841 5570 ft 238 kts 37°
2026-05-05 08:06 40.61641 -3.51428 6145 ft 245 kts 40°
2026-05-05 08:07 40.62916 -3.49964 6760 ft 249 kts 40°
2026-05-05 08:07 40.64234 -3.48451 7469 ft 252 kts 40°
2026-05-05 08:07 40.65563 -3.46937 8264 ft 253 kts 40°
2026-05-05 08:07 40.66911 -3.45413 8989 ft 258 kts 39°
2026-05-05 08:08 40.68284 -3.43869 9719 ft 262 kts 39°
2026-05-05 08:08 40.69681 -3.42302 10388 ft 266 kts 39°
2026-05-05 08:08 40.71099 -3.40713 11049 ft 270 kts 39°
2026-05-05 08:08 40.72537 -3.39100 11702 ft 273 kts 40°
2026-05-05 08:09 40.73683 -3.37082 12322 ft 281 kts 69°
2026-05-05 08:09 40.73970 -3.34535 12858 ft 289 kts 99°
2026-05-05 08:09 40.73234 -3.32035 13115 ft 300 kts 129°
2026-05-05 08:09 40.71948 -3.29831 13699 ft 306 kts 135°
2026-05-05 08:10 40.70267 -3.28185 14304 ft 300 kts 163°
2026-05-05 08:10 40.68276 -3.27599 15003 ft 290 kts 185°
2026-05-05 08:10 40.66281 -3.27807 15690 ft 287 kts 192°
2026-05-05 08:10 40.64293 -3.28150 16379 ft 289 kts 193°
2026-05-05 08:11 40.62298 -3.28515 17063 ft 290 kts 194°
2026-05-05 08:11 40.60970 -3.28757 17520 ft 292 kts 194°
2026-05-05 08:11 40.58954 -3.29118 18208 ft 293 kts 194°
2026-05-05 08:11 40.56927 -3.29475 18831 ft 294 kts 194°
2026-05-05 08:12 40.54897 -3.29825 19453 ft 294 kts 195°
2026-05-05 08:12 40.52867 -3.30172 20092 ft 294 kts 195°
2026-05-05 08:12 40.50834 -3.30517 20703 ft 295 kts 196°
2026-05-05 08:12 40.48795 -3.30863 21316 ft 296 kts 197°
2026-05-05 08:13 40.46746 -3.31209 21907 ft 297 kts 197°
2026-05-05 08:13 40.44693 -3.31554 22514 ft 298 kts 198°
2026-05-05 08:13 40.42633 -3.31901 23122 ft 299 kts 199°
2026-05-05 08:13 40.40565 -3.32248 23679 ft 300 kts 199°
2026-05-05 08:14 40.38490 -3.32596 24135 ft 302 kts 199°
2026-05-05 08:14 40.36398 -3.32948 24575 ft 304 kts 199°
2026-05-05 08:14 40.34291 -3.33301 25002 ft 307 kts 199°
2026-05-05 08:14 40.32164 -3.33658 25432 ft 309 kts 199°
2026-05-05 08:15 40.30024 -3.34015 25862 ft 311 kts 199°
2026-05-05 08:15 40.27866 -3.34377 26279 ft 314 kts 199°
2026-05-05 08:15 40.25696 -3.34740 26696 ft 316 kts 200°
2026-05-05 08:15 40.23506 -3.35180 26864 ft 323 kts 202°
2026-05-05 08:16 40.21257 -3.35739 26941 ft 334 kts 202°
2026-05-05 08:16 40.18937 -3.36341 27029 ft 346 kts 202°
2026-05-05 08:16 40.16544 -3.36959 27104 ft 357 kts 201°
2026-05-05 08:16 40.14097 -3.37582 27170 ft 368 kts 201°
2026-05-05 08:17 40.11548 -3.38221 27243 ft 378 kts 201°
2026-05-05 08:17 40.08928 -3.38871 27307 ft 388 kts 200°
2026-05-05 08:17 40.06237 -3.39533 27353 ft 398 kts 200°
2026-05-05 08:17 40.03483 -3.40208 27403 ft 407 kts 200°
2026-05-05 08:18 40.00671 -3.40896 27491 ft 414 kts 200°
2026-05-05 08:18 39.97828 -3.41587 27777 ft 416 kts 200°
2026-05-05 08:18 39.94981 -3.42277 28155 ft 416 kts 200°
2026-05-05 08:18 39.92135 -3.42969 28588 ft 415 kts 200°
2026-05-05 08:19 39.89302 -3.43659 29039 ft 413 kts 200°
2026-05-05 08:19 39.86483 -3.44349 29503 ft 411 kts 200°
2026-05-05 08:19 39.83673 -3.45036 29929 ft 410 kts 200°
2026-05-05 08:19 39.80872 -3.45740 30285 ft 407 kts 203°
2026-05-05 08:20 39.78283 -3.47018 30542 ft 393 kts 216°
2026-05-05 08:20 39.76051 -3.48992 30817 ft 383 kts 227°
2026-05-05 08:20 39.74148 -3.51391 31112 ft 381 kts 230°
2026-05-05 08:20 39.72306 -3.53861 31389 ft 381 kts 231°
2026-05-05 08:21 39.70473 -3.56337 31675 ft 381 kts 231°
2026-05-05 08:21 39.68625 -3.58813 31962 ft 381 kts 230°
2026-05-05 08:21 39.66769 -3.61277 32250 ft 381 kts 230°
2026-05-05 08:21 39.64909 -3.63726 32541 ft 382 kts 230°
2026-05-05 08:22 39.63065 -3.66146 32799 ft 382 kts 230°
2026-05-05 08:22 39.61190 -3.68600 33065 ft 383 kts 230°
2026-05-05 08:22 39.59316 -3.71050 33371 ft 382 kts 230°
2026-05-05 08:22 39.57446 -3.73492 33659 ft 382 kts 230°
2026-05-05 08:23 39.55579 -3.75930 33941 ft 381 kts 230°
2026-05-05 08:23 39.53709 -3.78374 34159 ft 382 kts 230°
2026-05-05 08:23 39.51835 -3.80821 34358 ft 382 kts 230°
2026-05-05 08:23 39.49965 -3.83264 34590 ft 382 kts 230°
2026-05-05 08:24 39.48095 -3.85705 34808 ft 382 kts 230°
2026-05-05 08:24 39.46225 -3.88143 34967 ft 381 kts 230°
2026-05-05 08:24 39.42484 -3.93015 34997 ft 382 kts 230°
2026-05-05 08:25 39.38732 -3.97894 35008 ft 383 kts 230°
2026-05-05 08:25 39.34966 -4.02786 35008 ft 384 kts 230°
2026-05-05 08:26 39.31191 -4.07678 35011 ft 385 kts 230°
2026-05-05 08:26 39.27408 -4.12573 35012 ft 385 kts 230°
2026-05-05 08:27 39.23627 -4.17457 35022 ft 384 kts 230°
2026-05-05 08:27 39.19848 -4.22331 35013 ft 384 kts 230°
2026-05-05 08:28 39.16078 -4.27186 35016 ft 383 kts 230°
2026-05-05 08:28 39.12312 -4.32028 35018 ft 382 kts 230°
2026-05-05 08:29 39.08582 -4.36817 35019 ft 380 kts 230°
2026-05-05 08:30 39.02967 -4.44012 35019 ft 379 kts 230°
2026-05-05 08:30 38.99232 -4.48789 35029 ft 378 kts 230°
2026-05-05 08:31 38.95513 -4.53539 35028 ft 376 kts 230°
2026-05-05 08:31 38.91802 -4.58266 35031 ft 375 kts 230°
2026-05-05 08:32 38.88089 -4.62984 35046 ft 376 kts 230°
2026-05-05 08:32 38.84373 -4.67700 35044 ft 376 kts 230°
2026-05-05 08:33 38.80642 -4.72429 35038 ft 377 kts 230°
2026-05-05 08:33 38.76912 -4.77149 35051 ft 377 kts 230°
2026-05-05 08:34 38.73178 -4.81867 35047 ft 377 kts 230°
2026-05-05 08:34 38.69466 -4.86551 35048 ft 377 kts 230°
2026-05-05 08:35 38.65724 -4.91266 35047 ft 377 kts 230°
2026-05-05 08:35 38.61978 -4.95977 35051 ft 377 kts 230°
2026-05-05 08:36 38.58266 -5.00641 35048 ft 378 kts 230°
2026-05-05 08:36 38.54516 -5.05346 35048 ft 378 kts 230°
2026-05-05 08:37 38.50571 -5.09830 35044 ft 384 kts 222°
2026-05-05 08:37 38.45827 -5.13171 35055 ft 393 kts 214°
2026-05-05 08:38 38.40903 -5.16188 35050 ft 393 kts 214°
2026-05-05 08:38 38.35977 -5.19216 35048 ft 393 kts 214°
2026-05-05 08:39 38.31063 -5.22253 35043 ft 393 kts 214°
2026-05-05 08:39 38.26153 -5.25290 35057 ft 392 kts 214°
2026-05-05 08:40 38.21245 -5.28323 35049 ft 392 kts 214°
2026-05-05 08:40 38.16371 -5.31331 35047 ft 392 kts 214°
2026-05-05 08:41 38.11470 -5.34352 35061 ft 392 kts 214°
2026-05-05 08:41 38.06554 -5.37377 35050 ft 393 kts 213°
2026-05-05 08:42 38.01634 -5.40400 35051 ft 394 kts 213°
2026-05-05 08:42 37.96753 -5.43394 35056 ft 395 kts 213°
2026-05-05 08:43 37.91805 -5.46425 35054 ft 396 kts 213°
2026-05-05 08:43 37.86844 -5.49458 35051 ft 396 kts 213°
2026-05-05 08:44 37.81872 -5.52494 35058 ft 397 kts 213°
2026-05-05 08:44 37.76890 -5.55533 35049 ft 398 kts 213°
2026-05-05 08:45 37.71900 -5.58570 35056 ft 398 kts 213°
2026-05-05 08:45 37.66939 -5.61586 35052 ft 398 kts 213°
2026-05-05 08:46 37.61950 -5.64614 35056 ft 398 kts 213°
2026-05-05 08:46 37.56960 -5.67638 35054 ft 398 kts 213°
2026-05-05 08:47 37.51975 -5.70656 35062 ft 397 kts 212°
2026-05-05 08:47 37.46998 -5.73665 35065 ft 397 kts 212°
2026-05-05 08:48 37.42162 -5.76907 35070 ft 389 kts 221°
2026-05-05 08:48 37.38032 -5.81208 35071 ft 385 kts 226°
2026-05-05 08:49 37.33963 -5.85583 35076 ft 385 kts 226°
2026-05-05 08:49 37.29870 -5.89954 35075 ft 386 kts 225°
2026-05-05 08:50 37.25767 -5.94316 35073 ft 387 kts 225°
2026-05-05 08:50 37.21654 -5.98677 35073 ft 387 kts 225°
2026-05-05 08:51 37.17538 -6.03032 35072 ft 387 kts 225°
2026-05-05 08:51 37.13416 -6.07389 35071 ft 388 kts 225°
2026-05-05 08:52 37.09287 -6.11746 35064 ft 388 kts 225°
2026-05-05 08:52 37.05181 -6.16074 35066 ft 388 kts 225°
2026-05-05 08:53 37.01043 -6.20428 35070 ft 389 kts 225°
2026-05-05 08:53 36.96940 -6.24739 35063 ft 389 kts 225°
2026-05-05 08:54 36.92795 -6.29089 35068 ft 389 kts 225°
2026-05-05 08:54 36.88639 -6.33443 35071 ft 390 kts 225°
2026-05-05 08:55 36.84479 -6.37795 35072 ft 390 kts 224°
2026-05-05 08:55 36.80313 -6.42147 35075 ft 390 kts 224°
2026-05-05 08:56 36.76140 -6.46500 35074 ft 391 kts 224°
2026-05-05 08:56 36.71967 -6.50847 35073 ft 391 kts 224°
2026-05-05 08:57 36.67791 -6.55190 35074 ft 391 kts 224°
2026-05-05 08:57 36.64317 -6.58800 35073 ft 391 kts 224°
2026-05-05 08:58 36.59454 -6.63844 35076 ft 392 kts 224°
2026-05-05 08:58 36.55944 -6.67481 35076 ft 392 kts 224°
2026-05-05 08:59 36.51750 -6.71819 35077 ft 392 kts 224°
2026-05-05 08:59 36.47571 -6.76131 35080 ft 393 kts 224°
2026-05-05 09:00 36.43363 -6.80465 35083 ft 393 kts 224°
2026-05-05 09:00 36.39145 -6.84805 35085 ft 394 kts 224°
2026-05-05 09:01 36.34925 -6.89141 35086 ft 394 kts 224°
2026-05-05 09:01 36.30699 -6.93478 35090 ft 395 kts 223°
2026-05-05 09:02 36.26465 -6.97816 35084 ft 395 kts 223°
2026-05-05 09:02 36.22223 -7.02157 35088 ft 395 kts 223°
2026-05-05 09:03 36.17978 -7.06494 35092 ft 396 kts 223°
2026-05-05 09:03 36.13726 -7.10833 35095 ft 396 kts 223°
2026-05-05 09:04 36.09473 -7.15165 35095 ft 396 kts 223°
2026-05-05 09:04 36.05214 -7.19498 35098 ft 396 kts 223°
2026-05-05 09:05 36.00978 -7.23802 35095 ft 397 kts 223°
2026-05-05 09:05 35.96751 -7.28090 35096 ft 397 kts 223°
2026-05-05 09:06 35.92476 -7.32421 35097 ft 397 kts 223°
2026-05-05 09:06 35.88194 -7.36754 35098 ft 398 kts 223°
2026-05-05 09:07 35.83917 -7.41075 35097 ft 398 kts 223°
2026-05-05 09:07 35.79617 -7.45386 35094 ft 398 kts 223°
2026-05-05 09:08 35.75305 -7.49680 35102 ft 399 kts 223°
2026-05-05 09:08 35.70992 -7.53973 35098 ft 399 kts 223°
2026-05-05 09:09 35.66675 -7.58268 35099 ft 399 kts 222°
2026-05-05 09:09 35.62348 -7.62567 35097 ft 400 kts 222°
2026-05-05 09:10 35.58052 -7.66829 35104 ft 400 kts 222°
2026-05-05 09:10 35.53718 -7.71124 35102 ft 400 kts 222°
2026-05-05 09:11 35.49380 -7.75416 35102 ft 401 kts 222°
2026-05-05 09:11 35.45039 -7.79707 35104 ft 401 kts 222°
2026-05-05 09:12 35.40685 -7.84005 35102 ft 401 kts 222°
2026-05-05 09:12 35.36356 -7.88322 35104 ft 401 kts 223°
2026-05-05 09:13 35.32028 -7.92652 35103 ft 402 kts 223°
2026-05-05 09:13 35.27698 -7.96976 35104 ft 402 kts 223°
2026-05-05 09:14 35.23364 -8.01295 35105 ft 402 kts 222°
2026-05-05 09:14 35.19045 -8.05590 35103 ft 403 kts 222°
2026-05-05 09:15 35.14695 -8.09911 35106 ft 403 kts 222°
2026-05-05 09:15 35.10338 -8.14232 35105 ft 403 kts 222°
2026-05-05 09:16 35.05981 -8.18547 35106 ft 404 kts 222°
2026-05-05 09:16 35.01615 -8.22865 35105 ft 404 kts 222°
2026-05-05 09:17 34.97300 -8.27126 35109 ft 404 kts 222°
2026-05-05 09:17 34.92925 -8.31441 35114 ft 404 kts 222°
2026-05-05 09:18 34.88548 -8.35752 35110 ft 404 kts 222°
2026-05-05 09:18 34.84171 -8.40056 35106 ft 405 kts 222°
2026-05-05 09:19 34.79786 -8.44363 35105 ft 405 kts 222°
2026-05-05 09:19 34.75433 -8.48632 35106 ft 405 kts 222°
2026-05-05 09:20 34.71048 -8.52926 35110 ft 405 kts 222°
2026-05-05 09:20 34.66628 -8.57248 35110 ft 405 kts 222°
2026-05-05 09:21 34.62270 -8.61505 35117 ft 405 kts 221°
2026-05-05 09:21 34.57882 -8.65784 35110 ft 405 kts 221°
2026-05-05 09:22 34.53492 -8.70060 35106 ft 405 kts 221°
2026-05-05 09:22 34.49101 -8.74332 35106 ft 405 kts 221°
2026-05-05 09:23 34.44706 -8.78600 35111 ft 404 kts 221°
2026-05-05 09:23 34.40305 -8.82846 35109 ft 404 kts 221°
2026-05-05 09:24 34.35892 -8.87082 35107 ft 404 kts 221°
2026-05-05 09:24 34.31483 -8.91312 35107 ft 404 kts 221°
2026-05-05 09:25 34.27075 -8.95538 35104 ft 404 kts 221°
2026-05-05 09:25 34.22669 -8.99757 35104 ft 404 kts 221°
2026-05-05 09:26 34.18260 -9.03973 35105 ft 404 kts 221°
2026-05-05 09:26 34.13855 -9.08180 35107 ft 404 kts 221°
2026-05-05 09:27 34.09479 -9.12353 35107 ft 403 kts 221°
2026-05-05 09:27 34.05047 -9.16575 35108 ft 403 kts 221°
2026-05-05 09:28 34.00648 -9.20759 35104 ft 403 kts 221°
2026-05-05 09:28 33.96322 -9.24867 35105 ft 402 kts 221°
2026-05-05 09:29 33.91928 -9.29036 35110 ft 402 kts 221°
2026-05-05 09:29 33.87535 -9.33197 35107 ft 402 kts 221°
2026-05-05 09:30 33.83140 -9.37355 35106 ft 401 kts 221°
2026-05-05 09:30 33.78747 -9.41505 35105 ft 401 kts 221°
2026-05-05 09:31 33.74355 -9.45649 35109 ft 401 kts 221°
2026-05-05 09:31 33.69960 -9.49790 35106 ft 401 kts 221°
2026-05-05 09:32 33.65572 -9.53920 35103 ft 401 kts 221°
2026-05-05 09:32 33.61179 -9.58047 35102 ft 401 kts 221°
2026-05-05 09:33 33.56821 -9.62137 35108 ft 400 kts 221°
2026-05-05 09:33 33.52437 -9.66246 35107 ft 400 kts 221°
2026-05-05 09:34 33.48053 -9.70350 35108 ft 400 kts 221°
2026-05-05 09:34 33.43667 -9.74449 35112 ft 399 kts 221°
2026-05-05 09:35 33.39285 -9.78540 35101 ft 399 kts 221°
2026-05-05 09:35 33.32722 -9.84657 35105 ft 398 kts 222°
2026-05-05 09:36 33.28350 -9.88725 35108 ft 398 kts 222°
2026-05-05 09:36 33.23984 -9.92783 35107 ft 397 kts 222°
2026-05-05 09:37 33.19622 -9.96831 35098 ft 397 kts 222°
2026-05-05 09:37 33.15264 -10.00871 35102 ft 396 kts 222°
2026-05-05 09:38 33.10940 -10.04874 35101 ft 395 kts 222°
2026-05-05 09:38 33.06592 -10.08896 35104 ft 395 kts 222°
2026-05-05 09:39 33.02253 -10.12902 35100 ft 394 kts 222°
2026-05-05 09:39 32.97960 -10.16858 35100 ft 394 kts 222°
2026-05-05 09:40 32.93630 -10.20841 35097 ft 393 kts 222°
2026-05-05 09:40 32.89309 -10.24813 35097 ft 392 kts 222°
2026-05-05 09:41 32.85000 -10.28769 35095 ft 391 kts 222°
2026-05-05 09:41 32.80696 -10.32717 35093 ft 390 kts 222°
2026-05-05 09:42 32.76407 -10.36646 35095 ft 388 kts 222°
2026-05-05 09:42 32.72138 -10.40551 35095 ft 387 kts 223°
2026-05-05 09:43 32.67884 -10.44438 35094 ft 385 kts 223°
2026-05-05 09:43 32.63649 -10.48304 35090 ft 383 kts 223°
2026-05-05 09:44 32.60140 -10.51502 35092 ft 382 kts 223°
2026-05-05 09:44 32.55935 -10.55331 35090 ft 380 kts 223°
2026-05-05 09:45 32.51067 -10.59759 35089 ft 379 kts 223°
2026-05-05 09:45 32.47565 -10.62940 35091 ft 378 kts 223°
2026-05-05 09:46 32.43401 -10.66718 35084 ft 377 kts 223°
2026-05-05 09:46 32.39247 -10.70483 35090 ft 376 kts 223°
2026-05-05 09:47 32.35126 -10.74214 35086 ft 375 kts 223°
2026-05-05 09:47 32.30987 -10.77956 35083 ft 374 kts 223°
2026-05-05 09:48 32.26853 -10.81689 35087 ft 374 kts 223°
2026-05-05 09:48 32.22719 -10.85418 35084 ft 373 kts 223°
2026-05-05 09:49 32.18591 -10.89138 35086 ft 373 kts 223°
2026-05-05 09:49 32.14459 -10.92857 35088 ft 373 kts 223°
2026-05-05 09:50 32.10323 -10.96575 35086 ft 374 kts 223°
2026-05-05 09:50 32.06187 -11.00288 35084 ft 374 kts 223°
2026-05-05 09:51 32.02042 -11.04005 35084 ft 374 kts 223°
2026-05-05 09:51 31.97943 -11.07677 35085 ft 374 kts 223°
2026-05-05 09:52 31.93793 -11.11391 35086 ft 375 kts 223°
2026-05-05 09:52 31.89640 -11.15102 35083 ft 375 kts 223°
2026-05-05 09:53 31.85518 -11.18781 35082 ft 374 kts 223°
2026-05-05 09:53 31.81370 -11.22481 35081 ft 374 kts 223°
2026-05-05 09:54 31.77227 -11.26172 35081 ft 373 kts 223°
2026-05-05 09:54 31.73092 -11.29852 35079 ft 373 kts 224°
2026-05-05 09:55 31.68963 -11.33529 35081 ft 372 kts 224°
2026-05-05 09:55 31.64846 -11.37194 35076 ft 371 kts 224°
2026-05-05 09:56 31.60736 -11.40849 35077 ft 370 kts 224°
2026-05-05 09:56 31.56641 -11.44487 35078 ft 369 kts 224°
2026-05-05 09:57 31.52558 -11.48110 35077 ft 368 kts 224°
2026-05-05 09:57 31.48507 -11.51701 35076 ft 366 kts 224°
2026-05-05 09:58 31.44443 -11.55298 35076 ft 365 kts 224°
2026-05-05 09:58 31.40395 -11.58878 35073 ft 364 kts 224°
2026-05-05 09:59 31.36356 -11.62446 35076 ft 363 kts 224°
2026-05-05 09:59 31.32322 -11.66006 35074 ft 362 kts 224°
2026-05-05 10:00 31.28300 -11.69551 35077 ft 361 kts 224°
2026-05-05 10:00 31.24286 -11.73086 35076 ft 361 kts 224°
2026-05-05 10:01 31.20305 -11.76587 35076 ft 360 kts 224°
2026-05-05 10:01 31.16301 -11.80105 35081 ft 360 kts 224°
2026-05-05 10:02 31.12301 -11.83616 35080 ft 360 kts 224°
2026-05-05 10:02 31.08298 -11.87126 35079 ft 360 kts 224°
2026-05-05 10:03 31.04295 -11.90631 35078 ft 360 kts 224°
2026-05-05 10:03 31.00292 -11.94133 35074 ft 359 kts 224°
2026-05-05 10:04 30.96339 -11.97587 35079 ft 359 kts 224°
2026-05-05 10:04 30.92341 -12.01077 35081 ft 359 kts 224°
2026-05-05 10:05 30.88339 -12.04567 35080 ft 359 kts 224°
2026-05-05 10:05 30.84342 -12.08049 35079 ft 359 kts 224°
2026-05-05 10:06 30.80364 -12.11510 35077 ft 359 kts 224°
2026-05-05 10:06 30.76364 -12.14988 35078 ft 359 kts 224°
2026-05-05 10:07 30.72362 -12.18463 35073 ft 359 kts 224°
2026-05-05 10:07 30.68360 -12.21934 35079 ft 359 kts 224°
2026-05-05 10:08 30.64357 -12.25402 35082 ft 359 kts 224°
2026-05-05 10:08 30.60357 -12.28866 35082 ft 359 kts 224°
2026-05-05 10:09 30.56355 -12.32327 35072 ft 359 kts 224°
2026-05-05 10:09 30.52354 -12.35783 35080 ft 358 kts 224°
2026-05-05 10:10 30.48350 -12.39233 35071 ft 358 kts 223°
2026-05-05 10:10 30.44343 -12.42673 35076 ft 358 kts 223°
2026-05-05 10:11 30.40363 -12.46087 35072 ft 358 kts 223°
2026-05-05 10:11 30.36359 -12.49520 35075 ft 358 kts 223°
2026-05-05 10:12 30.32358 -12.52948 35077 ft 358 kts 223°
2026-05-05 10:12 30.28360 -12.56369 35073 ft 357 kts 223°
2026-05-05 10:13 30.24363 -12.59786 35076 ft 357 kts 223°
2026-05-05 10:13 30.20364 -12.63202 35077 ft 357 kts 223°
2026-05-05 10:14 30.16363 -12.66616 35078 ft 357 kts 223°
2026-05-05 10:14 30.12365 -12.70025 35078 ft 357 kts 223°
2026-05-05 10:15 30.08370 -12.73430 35077 ft 357 kts 223°
2026-05-05 10:15 30.04381 -12.76840 35076 ft 357 kts 223°
2026-05-05 10:16 30.00391 -12.80250 35077 ft 357 kts 223°
2026-05-05 10:16 29.96477 -12.83591 35077 ft 357 kts 223°
2026-05-05 10:17 29.92488 -12.86994 35077 ft 357 kts 223°
2026-05-05 10:17 29.88492 -12.90398 35079 ft 357 kts 223°
2026-05-05 10:18 29.84498 -12.93798 35078 ft 357 kts 223°
2026-05-05 10:18 29.80505 -12.97192 35074 ft 357 kts 223°
2026-05-05 10:19 29.76509 -13.00587 35076 ft 357 kts 223°
2026-05-05 10:19 29.72509 -13.03980 35074 ft 357 kts 223°
2026-05-05 10:20 29.68507 -13.07373 35074 ft 357 kts 223°
2026-05-05 10:20 29.64503 -13.10763 35077 ft 357 kts 223°
2026-05-05 10:21 29.60498 -13.14151 35079 ft 357 kts 223°
2026-05-05 10:21 29.56517 -13.17515 35077 ft 357 kts 223°
2026-05-05 10:22 29.52510 -13.20898 35078 ft 357 kts 223°
2026-05-05 10:22 29.48507 -13.24274 35079 ft 357 kts 223°
2026-05-05 10:23 29.44499 -13.27651 35079 ft 357 kts 223°
2026-05-05 10:23 29.40486 -13.31028 35073 ft 357 kts 223°
2026-05-05 10:24 29.36481 -13.34396 35075 ft 357 kts 223°
2026-05-05 10:24 29.32470 -13.37766 35073 ft 357 kts 223°
2026-05-05 10:25 29.28491 -13.41106 35073 ft 357 kts 223°
2026-05-05 10:25 29.24459 -13.44487 35072 ft 357 kts 223°
2026-05-05 10:26 29.21484 -13.46980 35078 ft 357 kts 223°
2026-05-05 10:26 29.17476 -13.50334 35067 ft 357 kts 223°
2026-05-05 10:27 29.13620 -13.53875 35066 ft 354 kts 227°
2026-05-05 10:27 29.09921 -13.57587 35068 ft 354 kts 227°
2026-05-05 10:28 29.06223 -13.61294 35076 ft 353 kts 227°
2026-05-05 10:28 29.02517 -13.64975 35079 ft 353 kts 227°
2026-05-05 10:29 28.98808 -13.68641 35083 ft 352 kts 227°
2026-05-05 10:29 28.95094 -13.72302 35080 ft 353 kts 227°
2026-05-05 10:30 28.91373 -13.75967 35063 ft 353 kts 226°
2026-05-05 10:30 28.87672 -13.79605 35083 ft 351 kts 226°
2026-05-05 10:31 28.85860 -13.81382 35058 ft 340 kts 227°
2026-05-05 10:31 28.84094 -13.83110 35056 ft 331 kts 227°
2026-05-05 10:31 28.80629 -13.86513 35068 ft 328 kts 227°
2026-05-05 10:32 28.78888 -13.88225 34800 ft 329 kts 227°
2026-05-05 10:32 28.77166 -13.89914 34470 ft 325 kts 227°
2026-05-05 10:32 28.75466 -13.91579 34164 ft 320 kts 227°
2026-05-05 10:32 28.73783 -13.93227 33738 ft 318 kts 227°
2026-05-05 10:33 28.72112 -13.94864 33346 ft 315 kts 227°
2026-05-05 10:33 28.70460 -13.96481 32966 ft 312 kts 227°
2026-05-05 10:33 28.68824 -13.98081 32596 ft 308 kts 227°
2026-05-05 10:33 28.67752 -13.99130 32349 ft 307 kts 227°
2026-05-05 10:34 28.66120 -14.00729 32008 ft 312 kts 226°
2026-05-05 10:34 28.64460 -14.02355 31637 ft 316 kts 226°
2026-05-05 10:34 28.62801 -14.03976 31255 ft 314 kts 226°
2026-05-05 10:34 28.61151 -14.05586 30890 ft 311 kts 226°
2026-05-05 10:35 28.59512 -14.07184 30527 ft 309 kts 226°
2026-05-05 10:35 28.57882 -14.08774 30169 ft 307 kts 226°
2026-05-05 10:35 28.56267 -14.10349 29752 ft 305 kts 226°
2026-05-05 10:35 28.54661 -14.11914 29355 ft 302 kts 226°
2026-05-05 10:36 28.53070 -14.13465 28964 ft 299 kts 226°
2026-05-05 10:36 28.51518 -14.14976 28611 ft 296 kts 226°
2026-05-05 10:36 28.49935 -14.16518 28233 ft 295 kts 226°
2026-05-05 10:36 28.48384 -14.18029 27871 ft 293 kts 226°
2026-05-05 10:37 28.46850 -14.19524 27525 ft 296 kts 226°
2026-05-05 10:37 28.45280 -14.21052 27160 ft 297 kts 226°
2026-05-05 10:37 28.43710 -14.22578 26790 ft 296 kts 225°
2026-05-05 10:37 28.42153 -14.24089 26420 ft 293 kts 225°
2026-05-05 10:38 28.40608 -14.25589 26065 ft 291 kts 225°
2026-05-05 10:38 28.39074 -14.27076 25713 ft 289 kts 225°
2026-05-05 10:38 28.37549 -14.28554 25364 ft 287 kts 225°
2026-05-05 10:38 28.36034 -14.30022 25014 ft 285 kts 225°
2026-05-05 10:39 28.34528 -14.31480 24668 ft 284 kts 225°
2026-05-05 10:39 28.33030 -14.32932 24325 ft 283 kts 225°
2026-05-05 10:39 28.31534 -14.34380 23982 ft 281 kts 225°
2026-05-05 10:39 28.30046 -14.35821 23620 ft 281 kts 224°
2026-05-05 10:40 28.28565 -14.37254 23235 ft 279 kts 224°
2026-05-05 10:40 28.27090 -14.38681 22864 ft 277 kts 224°
2026-05-05 10:40 28.25626 -14.40097 22508 ft 275 kts 224°
2026-05-05 10:40 28.24171 -14.41502 22174 ft 273 kts 224°
2026-05-05 10:41 28.22729 -14.42896 21838 ft 272 kts 224°
2026-05-05 10:41 28.21309 -14.44268 21516 ft 272 kts 224°
2026-05-05 10:41 28.19867 -14.45662 21191 ft 273 kts 224°
2026-05-05 10:41 28.18424 -14.47055 20860 ft 273 kts 224°
2026-05-05 10:42 28.15526 -14.49852 20201 ft 273 kts 224°
2026-05-05 10:42 28.14082 -14.51244 19869 ft 272 kts 224°
2026-05-05 10:42 28.12645 -14.52628 19547 ft 270 kts 224°
2026-05-05 10:43 28.11217 -14.54004 19220 ft 269 kts 224°
2026-05-05 10:43 28.09793 -14.55376 18900 ft 268 kts 224°
2026-05-05 10:43 28.08377 -14.56740 18586 ft 267 kts 224°
2026-05-05 10:43 28.06966 -14.58099 18249 ft 266 kts 224°
2026-05-05 10:44 28.05557 -14.59455 17898 ft 265 kts 224°
2026-05-05 10:44 28.04155 -14.60804 17559 ft 264 kts 224°
2026-05-05 10:44 28.02760 -14.62145 17230 ft 262 kts 224°
2026-05-05 10:44 28.01376 -14.63475 16919 ft 260 kts 224°
2026-05-05 10:45 27.99995 -14.64805 16608 ft 261 kts 225°
2026-05-05 10:45 27.98717 -14.66205 16308 ft 263 kts 229°
2026-05-05 10:45 27.97453 -14.67705 15991 ft 263 kts 229°
2026-05-05 10:45 27.96211 -14.69199 15675 ft 262 kts 229°
2026-05-05 10:46 27.94966 -14.70695 15369 ft 260 kts 229°
2026-05-05 10:46 27.93736 -14.72165 15057 ft 259 kts 229°
2026-05-05 10:46 27.92498 -14.73639 14749 ft 258 kts 229°
2026-05-05 10:46 27.91265 -14.75105 14451 ft 257 kts 229°
2026-05-05 10:47 27.90033 -14.76566 14148 ft 256 kts 229°
2026-05-05 10:47 27.88804 -14.78021 13838 ft 256 kts 229°
2026-05-05 10:47 27.87575 -14.79474 13507 ft 255 kts 229°
2026-05-05 10:47 27.86350 -14.80922 13188 ft 255 kts 229°
2026-05-05 10:48 27.85115 -14.82380 12890 ft 258 kts 229°
2026-05-05 10:48 27.83866 -14.83854 12579 ft 260 kts 229°
2026-05-05 10:48 27.82618 -14.85326 12265 ft 259 kts 229°
2026-05-05 10:48 27.81376 -14.86789 11962 ft 258 kts 228°
2026-05-05 10:49 27.80138 -14.88248 11660 ft 257 kts 228°
2026-05-05 10:49 27.78901 -14.89704 11354 ft 256 kts 228°
2026-05-05 10:49 27.77672 -14.91152 11057 ft 256 kts 228°
2026-05-05 10:49 27.76435 -14.92607 10765 ft 258 kts 228°
2026-05-05 10:50 27.75186 -14.94078 10507 ft 259 kts 228°
2026-05-05 10:50 27.73957 -14.95523 10373 ft 251 kts 228°
2026-05-05 10:50 27.72764 -14.96923 10263 ft 244 kts 227°
2026-05-05 10:50 27.71608 -14.98281 10141 ft 236 kts 227°
2026-05-05 10:51 27.70482 -14.99604 10043 ft 232 kts 227°
2026-05-05 10:51 27.69490 -15.01000 9828 ft 232 kts 240°
2026-05-05 10:51 27.68748 -15.02633 9581 ft 230 kts 244°
2026-05-05 10:51 27.68069 -15.04262 9322 ft 229 kts 244°
2026-05-05 10:52 27.67390 -15.05880 9062 ft 228 kts 244°
2026-05-05 10:52 27.66704 -15.07489 8811 ft 228 kts 244°
2026-05-05 10:52 27.66010 -15.09094 8560 ft 232 kts 244°
2026-05-05 10:52 27.65295 -15.10737 8291 ft 233 kts 244°
2026-05-05 10:53 27.64579 -15.12378 8027 ft 233 kts 243°
2026-05-05 10:53 27.63901 -15.14033 7761 ft 233 kts 253°
2026-05-05 10:53 27.63807 -15.15840 7508 ft 233 kts 278°
2026-05-05 10:53 27.64279 -15.17589 7270 ft 234 kts 289°
2026-05-05 10:54 27.64897 -15.19301 7015 ft 237 kts 290°
2026-05-05 10:54 27.65527 -15.21031 6759 ft 238 kts 290°
2026-05-05 10:54 27.66149 -15.22767 6493 ft 239 kts 290°
2026-05-05 10:54 27.66765 -15.24508 6191 ft 240 kts 290°
2026-05-05 10:55 27.67385 -15.26264 5911 ft 241 kts 290°
2026-05-05 10:55 27.68002 -15.28019 5628 ft 240 kts 290°
2026-05-05 10:55 27.68617 -15.29772 5362 ft 240 kts 290°
2026-05-05 10:55 27.69230 -15.31523 5109 ft 240 kts 291°
2026-05-05 10:56 27.69841 -15.33270 4912 ft 237 kts 291°
2026-05-05 10:56 27.70435 -15.34970 4805 ft 230 kts 291°
2026-05-05 10:56 27.71010 -15.36614 4598 ft 222 kts 291°
2026-05-05 10:56 27.71570 -15.38219 4361 ft 217 kts 291°
2026-05-05 10:57 27.72115 -15.39783 4132 ft 211 kts 292°
2026-05-05 10:57 27.72646 -15.41306 3914 ft 206 kts 292°
2026-05-05 10:57 27.73254 -15.42738 3683 ft 201 kts 313°
2026-05-05 10:57 27.74396 -15.43571 3535 ft 194 kts 337°
2026-05-05 10:58 27.75624 -15.44208 3311 ft 194 kts 336°
2026-05-05 10:58 27.76835 -15.44849 3097 ft 192 kts 336°
2026-05-05 10:58 27.78086 -15.45258 2893 ft 184 kts
2026-05-05 10:58 27.79269 -15.44789 2732 ft 182 kts 22°
2026-05-05 10:59 27.80443 -15.44299 2511 ft 178 kts 21°
2026-05-05 10:59 27.81603 -15.43802 2269 ft 178 kts 22°
2026-05-05 10:59 27.82749 -15.43296 2038 ft 175 kts 22°
2026-05-05 10:59 27.83881 -15.42793 1800 ft 175 kts 21°
2026-05-05 11:00 27.85022 -15.42285 1557 ft 177 kts 22°
2026-05-05 11:00 27.86145 -15.41786 1334 ft 170 kts 21°
2026-05-05 11:00 27.87196 -15.41319 1097 ft 155 kts 22°
2026-05-05 11:00 27.88140 -15.40900 938 ft 143 kts 22°
2026-05-05 11:01 27.89057 -15.40492 728 ft 139 kts 23°
2026-05-05 11:01 27.89944 -15.40099 542 ft 136 kts 22°
2026-05-05 11:01 27.90829 -15.39704 359 ft 136 kts 21°
2026-05-05 11:01 27.91696 -15.39319 180 ft 132 kts 21°
2026-05-05 11:02 27.92531 -15.38946 65 ft 122 kts 21°
2026-05-05 11:02 27.93201 -15.38653 59 ft 82 kts 21°
2026-05-05 11:02 27.93581 -15.38485 58 ft 38 kts 21°
2026-05-05 11:02 27.93815 -15.38424 61 ft 33 kts 359°
2026-05-05 11:03 27.93968 -15.38445 69 ft 16 kts 350°
2026-05-05 11:03 27.94053 -15.38511 64 ft 16 kts 302°
2026-05-05 11:03 27.94072 -15.38596 73 ft 10 kts 262°
2026-05-05 11:03 27.94027 -15.38646 85 ft 10 kts 201°
2026-05-05 11:04 27.93966 -15.38673 85 ft 9 kts 201°
2026-05-05 11:04 27.93928 -15.38689 84 ft 4 kts 201°
2026-05-05 11:04 27.93914 -15.38708 84 ft 4 kts 273°
2026-05-05 11:04 27.93923 -15.38736 83 ft 4 kts 291°
2026-05-05 11:05 27.93933 -15.38763 85 ft 4 kts 291°
2026-05-05 11:05 27.93937 -15.38777 84 ft 1 kts 291°
2026-05-05 11:05 27.93938 -15.38779 85 ft 0 kts 291°